Year,Month,Day,Hour,Minute,Value (Times are PST for temperature in C)
2019,07,18,00,00,16.30
2019,07,18,00,01,16.30
2019,07,18,00,02,16.30
2019,07,18,00,03,16.20
2019,07,18,00,04,16.20
2019,07,18,00,05,16.10
2019,07,18,00,06,16.10
2019,07,18,00,07,16.10
2019,07,18,00,08,16.10
2019,07,18,00,09,16.00
2019,07,18,00,10,16.00
2019,07,18,00,11,15.90
2019,07,18,00,12,15.90
2019,07,18,00,13,15.90
2019,07,18,00,14,15.90
2019,07,18,00,15,15.90
2019,07,18,00,16,15.80
2019,07,18,00,17,15.80
2019,07,18,00,18,15.80
2019,07,18,00,19,15.80
2019,07,18,00,20,15.70
2019,07,18,00,21,15.70
2019,07,18,00,22,15.70
2019,07,18,00,23,15.60
2019,07,18,00,24,15.60
2019,07,18,00,25,15.60
2019,07,18,00,26,15.60
2019,07,18,00,27,15.60
2019,07,18,00,28,15.60
2019,07,18,00,29,15.60
2019,07,18,00,30,15.60
2019,07,18,00,31,15.60
2019,07,18,00,32,15.60
2019,07,18,00,33,15.60
2019,07,18,00,34,15.60
2019,07,18,00,35,15.60
2019,07,18,00,36,15.60
2019,07,18,00,37,15.60
2019,07,18,00,38,15.60
2019,07,18,00,39,15.60
2019,07,18,00,40,15.70
2019,07,18,00,41,15.70
2019,07,18,00,42,15.70
2019,07,18,00,43,15.70
2019,07,18,00,44,15.70
2019,07,18,00,45,15.70
2019,07,18,00,46,15.70
2019,07,18,00,47,15.70
2019,07,18,00,48,15.70
2019,07,18,00,49,15.60
2019,07,18,00,50,15.60
2019,07,18,00,51,15.60
2019,07,18,00,52,15.60
2019,07,18,00,53,15.60
2019,07,18,00,54,15.60
2019,07,18,00,55,15.60
2019,07,18,00,56,15.60
2019,07,18,00,57,15.60
2019,07,18,00,58,15.50
2019,07,18,00,59,15.50
2019,07,18,01,00,15.40
2019,07,18,01,01,15.40
2019,07,18,01,02,15.40
2019,07,18,01,03,15.40
2019,07,18,01,04,15.40
2019,07,18,01,05,15.40
2019,07,18,01,06,15.30
2019,07,18,01,07,15.30
2019,07,18,01,08,15.30
2019,07,18,01,09,15.20
2019,07,18,01,10,15.20
2019,07,18,01,11,15.20
2019,07,18,01,12,15.10
2019,07,18,01,13,15.10
2019,07,18,01,14,15.00
2019,07,18,01,15,15.00
2019,07,18,01,16,15.00
2019,07,18,01,17,14.90
2019,07,18,01,18,14.90
2019,07,18,01,19,14.80
2019,07,18,01,20,14.80
2019,07,18,01,21,14.70
2019,07,18,01,22,14.70
2019,07,18,01,23,14.60
2019,07,18,01,24,14.60
2019,07,18,01,25,14.50
2019,07,18,01,26,14.50
2019,07,18,01,27,14.40
2019,07,18,01,28,14.30
2019,07,18,01,29,14.30
2019,07,18,01,30,14.20
2019,07,18,01,31,14.10
2019,07,18,01,32,14.10
2019,07,18,01,33,14.00
2019,07,18,01,34,13.90
2019,07,18,01,35,13.90
2019,07,18,01,36,13.80
2019,07,18,01,37,13.80
2019,07,18,01,38,13.70
2019,07,18,01,39,13.60
2019,07,18,01,40,13.60
2019,07,18,01,41,13.50
2019,07,18,01,42,13.50
2019,07,18,01,43,13.40
2019,07,18,01,44,13.40
2019,07,18,01,45,13.40
2019,07,18,01,46,13.30
2019,07,18,01,47,13.30
2019,07,18,01,48,13.30
2019,07,18,01,49,13.20
2019,07,18,01,50,13.20
2019,07,18,01,51,13.10
2019,07,18,01,52,13.10
2019,07,18,01,53,13.10
2019,07,18,01,54,13.10
2019,07,18,01,55,13.10
2019,07,18,01,56,13.00
2019,07,18,01,57,13.00
2019,07,18,01,58,13.00
2019,07,18,01,59,12.90
2019,07,18,02,00,12.90
2019,07,18,02,01,12.90
2019,07,18,02,02,12.90
2019,07,18,02,03,12.90
2019,07,18,02,04,12.90
2019,07,18,02,05,12.90
2019,07,18,02,06,12.90
2019,07,18,02,07,12.90
2019,07,18,02,08,12.90
2019,07,18,02,09,12.80
2019,07,18,02,10,12.80
2019,07,18,02,11,12.80
2019,07,18,02,12,12.80
2019,07,18,02,13,12.70
2019,07,18,02,14,12.70
2019,07,18,02,15,12.70
2019,07,18,02,16,12.70
2019,07,18,02,17,12.60
2019,07,18,02,18,12.60
2019,07,18,02,19,12.60
2019,07,18,02,20,12.60
2019,07,18,02,21,12.50
2019,07,18,02,22,12.50
2019,07,18,02,23,12.50
2019,07,18,02,24,12.40
2019,07,18,02,25,12.40
2019,07,18,02,26,12.40
2019,07,18,02,27,12.40
2019,07,18,02,28,12.30
2019,07,18,02,29,12.30
2019,07,18,02,30,12.30
2019,07,18,02,31,12.30
2019,07,18,02,32,12.30
2019,07,18,02,33,12.20
2019,07,18,02,34,12.20
2019,07,18,02,35,12.20
2019,07,18,02,36,12.20
2019,07,18,02,37,12.10
2019,07,18,02,38,12.10
2019,07,18,02,39,12.10
2019,07,18,02,40,12.10
2019,07,18,02,41,12.10
2019,07,18,02,42,12.10
2019,07,18,02,43,12.10
2019,07,18,02,44,12.10
2019,07,18,02,45,12.00
2019,07,18,02,46,12.00
2019,07,18,02,47,12.00
2019,07,18,02,48,12.00
2019,07,18,02,49,12.00
2019,07,18,02,50,12.00
2019,07,18,02,51,11.90
2019,07,18,02,52,11.90
2019,07,18,02,53,11.90
2019,07,18,02,54,11.90
2019,07,18,02,55,11.90
2019,07,18,02,56,11.90
2019,07,18,02,57,11.90
2019,07,18,02,58,11.90
2019,07,18,02,59,11.80
2019,07,18,03,00,11.90
2019,07,18,03,01,11.80
2019,07,18,03,02,11.80
2019,07,18,03,03,11.80
2019,07,18,03,04,11.80
2019,07,18,03,05,11.80
2019,07,18,03,06,11.80
2019,07,18,03,07,11.80
2019,07,18,03,08,11.80
2019,07,18,03,09,11.80
2019,07,18,03,10,11.80
2019,07,18,03,11,11.80
2019,07,18,03,12,11.80
2019,07,18,03,13,11.80
2019,07,18,03,14,11.80
2019,07,18,03,15,11.80
2019,07,18,03,16,11.70
2019,07,18,03,17,11.70
2019,07,18,03,18,11.70
2019,07,18,03,19,11.70
2019,07,18,03,20,11.70
2019,07,18,03,21,11.70
2019,07,18,03,22,11.70
2019,07,18,03,23,11.70
2019,07,18,03,24,11.60
2019,07,18,03,25,11.60
2019,07,18,03,26,11.60
2019,07,18,03,27,11.60
2019,07,18,03,28,11.60
2019,07,18,03,29,11.50
2019,07,18,03,30,11.50
2019,07,18,03,31,11.40
2019,07,18,03,32,11.40
2019,07,18,03,33,11.40
2019,07,18,03,34,11.40
2019,07,18,03,35,11.40
2019,07,18,03,36,11.40
2019,07,18,03,37,11.40
2019,07,18,03,38,11.40
2019,07,18,03,39,11.40
2019,07,18,03,40,11.40
2019,07,18,03,41,11.40
2019,07,18,03,42,11.40
2019,07,18,03,43,11.40
2019,07,18,03,44,11.40
2019,07,18,03,45,11.40
2019,07,18,03,46,11.40
2019,07,18,03,47,11.40
2019,07,18,03,48,11.40
2019,07,18,03,49,11.40
2019,07,18,03,50,11.40
2019,07,18,03,51,11.40
2019,07,18,03,52,11.40
2019,07,18,03,53,11.40
2019,07,18,03,54,11.40
2019,07,18,03,55,11.40
2019,07,18,03,56,11.40
2019,07,18,03,57,11.40
2019,07,18,03,58,11.40
2019,07,18,03,59,11.40
2019,07,18,04,00,11.40
2019,07,18,04,01,11.40
2019,07,18,04,02,11.30
2019,07,18,04,03,11.30
2019,07,18,04,04,11.30
2019,07,18,04,05,11.30
2019,07,18,04,06,11.30
2019,07,18,04,07,11.30
2019,07,18,04,08,11.30
2019,07,18,04,09,11.30
2019,07,18,04,10,11.30
2019,07,18,04,11,11.30
2019,07,18,04,12,11.30
2019,07,18,04,13,11.30
2019,07,18,04,14,11.30
2019,07,18,04,15,11.30
2019,07,18,04,16,11.30
2019,07,18,04,17,11.30
2019,07,18,04,18,11.30
2019,07,18,04,19,11.30
2019,07,18,04,20,11.30
2019,07,18,04,21,11.30
2019,07,18,04,22,11.30
2019,07,18,04,23,11.30
2019,07,18,04,24,11.30
2019,07,18,04,25,11.20
2019,07,18,04,26,11.20
2019,07,18,04,27,11.20
2019,07,18,04,28,11.20
2019,07,18,04,29,11.20
2019,07,18,04,30,11.20
2019,07,18,04,31,11.20
2019,07,18,04,32,11.20
2019,07,18,04,33,11.20
2019,07,18,04,34,11.20
2019,07,18,04,35,11.20
2019,07,18,04,36,11.20
2019,07,18,04,37,11.20
2019,07,18,04,38,11.20
2019,07,18,04,39,11.20
2019,07,18,04,40,11.20
2019,07,18,04,41,11.10
2019,07,18,04,42,11.10
2019,07,18,04,43,11.10
2019,07,18,04,44,11.10
2019,07,18,04,45,11.10
2019,07,18,04,46,11.10
2019,07,18,04,47,11.10
2019,07,18,04,48,11.10
2019,07,18,04,49,11.10
2019,07,18,04,50,11.10
2019,07,18,04,51,11.00
2019,07,18,04,52,11.10
2019,07,18,04,53,11.00
2019,07,18,04,54,11.00
2019,07,18,04,55,11.00
2019,07,18,04,56,11.00
2019,07,18,04,57,11.00
2019,07,18,04,58,11.00
2019,07,18,04,59,11.00
2019,07,18,05,00,11.00
2019,07,18,05,01,10.90
2019,07,18,05,02,10.90
2019,07,18,05,03,10.90
2019,07,18,05,04,10.90
2019,07,18,05,05,10.90
2019,07,18,05,06,10.90
2019,07,18,05,07,10.90
2019,07,18,05,08,10.90
2019,07,18,05,09,10.80
2019,07,18,05,10,10.80
2019,07,18,05,11,10.80
2019,07,18,05,12,10.80
2019,07,18,05,13,10.80
2019,07,18,05,14,10.80
2019,07,18,05,15,10.80
2019,07,18,05,16,10.80
2019,07,18,05,17,10.80
2019,07,18,05,18,10.80
2019,07,18,05,19,10.80
2019,07,18,05,20,10.80
2019,07,18,05,21,10.80
2019,07,18,05,22,10.80
2019,07,18,05,23,10.80
2019,07,18,05,24,10.80
2019,07,18,05,25,10.80
2019,07,18,05,26,10.80
2019,07,18,05,27,10.80
2019,07,18,05,28,10.80
2019,07,18,05,29,10.80
2019,07,18,05,30,10.80
2019,07,18,05,31,10.80
2019,07,18,05,32,10.80
2019,07,18,05,33,10.80
2019,07,18,05,34,10.80
2019,07,18,05,35,10.70
2019,07,18,05,36,10.70
2019,07,18,05,37,10.70
2019,07,18,05,38,10.70
2019,07,18,05,39,10.70
2019,07,18,05,40,10.70
2019,07,18,05,41,10.70
2019,07,18,05,42,10.70
2019,07,18,05,43,10.70
2019,07,18,05,44,10.70
2019,07,18,05,45,10.70
2019,07,18,05,46,10.70
2019,07,18,05,47,10.70
2019,07,18,05,48,10.70
2019,07,18,05,49,10.70
2019,07,18,05,50,10.70
2019,07,18,05,51,10.70
2019,07,18,05,52,10.70
2019,07,18,05,53,10.60
2019,07,18,05,54,10.60
2019,07,18,05,55,10.70
2019,07,18,05,56,10.70
2019,07,18,05,57,10.70
2019,07,18,05,58,10.70
2019,07,18,05,59,10.70
2019,07,18,06,00,10.70
2019,07,18,06,01,10.70
2019,07,18,06,02,10.70
2019,07,18,06,03,10.70
2019,07,18,06,04,10.70
2019,07,18,06,05,10.70
2019,07,18,06,06,10.70
2019,07,18,06,07,10.70
2019,07,18,06,08,10.70
2019,07,18,06,09,10.70
2019,07,18,06,10,10.70
2019,07,18,06,11,10.70
2019,07,18,06,12,10.70
2019,07,18,06,13,10.70
2019,07,18,06,14,10.70
2019,07,18,06,15,10.70
2019,07,18,06,16,10.70
2019,07,18,06,17,10.70
2019,07,18,06,18,10.70
2019,07,18,06,19,10.70
2019,07,18,06,20,10.70
2019,07,18,06,21,10.70
2019,07,18,06,22,10.70
2019,07,18,06,23,10.70
2019,07,18,06,24,10.70
2019,07,18,06,25,10.70
2019,07,18,06,26,10.70
2019,07,18,06,27,10.70
2019,07,18,06,28,10.70
2019,07,18,06,29,10.70
2019,07,18,06,30,10.80
2019,07,18,06,31,10.80
2019,07,18,06,32,10.80
2019,07,18,06,33,10.80
2019,07,18,06,34,10.80
2019,07,18,06,35,10.80
2019,07,18,06,36,10.80
2019,07,18,06,37,10.80
2019,07,18,06,38,10.90
2019,07,18,06,39,10.90
2019,07,18,06,40,10.90
2019,07,18,06,41,10.90
2019,07,18,06,42,10.90
2019,07,18,06,43,10.90
2019,07,18,06,44,11.00
2019,07,18,06,45,11.00
2019,07,18,06,46,11.00
2019,07,18,06,47,11.10
2019,07,18,06,48,11.10
2019,07,18,06,49,11.10
2019,07,18,06,50,11.10
2019,07,18,06,51,11.10
2019,07,18,06,52,11.10
2019,07,18,06,53,11.20
2019,07,18,06,54,11.20
2019,07,18,06,55,11.20
2019,07,18,06,56,11.20
2019,07,18,06,57,11.20
2019,07,18,06,58,11.20
2019,07,18,06,59,11.30
2019,07,18,07,00,11.30
2019,07,18,07,01,11.30
2019,07,18,07,02,11.30
2019,07,18,07,03,11.30
2019,07,18,07,04,11.30
2019,07,18,07,05,11.40
2019,07,18,07,06,11.40
2019,07,18,07,07,11.40
2019,07,18,07,08,11.50
2019,07,18,07,09,11.50
2019,07,18,07,10,11.50
2019,07,18,07,11,11.60
2019,07,18,07,12,11.60
2019,07,18,07,13,11.70
2019,07,18,07,14,11.70
2019,07,18,07,15,11.80
2019,07,18,07,16,11.80
2019,07,18,07,17,11.90
2019,07,18,07,18,12.00
2019,07,18,07,19,12.10
2019,07,18,07,20,12.20
2019,07,18,07,21,12.30
2019,07,18,07,22,12.40
2019,07,18,07,23,12.40
2019,07,18,07,24,12.50
2019,07,18,07,25,12.60
2019,07,18,07,26,12.70
2019,07,18,07,27,12.70
2019,07,18,07,28,12.80
2019,07,18,07,29,12.80
2019,07,18,07,30,12.80
2019,07,18,07,31,12.90
2019,07,18,07,32,13.00
2019,07,18,07,33,13.00
2019,07,18,07,34,13.10
2019,07,18,07,35,13.20
2019,07,18,07,36,13.30
2019,07,18,07,37,13.30
2019,07,18,07,38,13.40
2019,07,18,07,39,13.50
2019,07,18,07,40,13.60
2019,07,18,07,41,13.70
2019,07,18,07,42,13.70
2019,07,18,07,43,13.80
2019,07,18,07,44,13.80
2019,07,18,07,45,13.90
2019,07,18,07,46,14.00
2019,07,18,07,47,14.10
2019,07,18,07,48,14.10
2019,07,18,07,49,14.20
2019,07,18,07,50,14.30
2019,07,18,07,51,14.40
2019,07,18,07,52,14.50
2019,07,18,07,53,14.50
2019,07,18,07,54,14.60
2019,07,18,07,55,14.60
2019,07,18,07,56,14.70
2019,07,18,07,57,14.80
2019,07,18,07,58,14.80
2019,07,18,07,59,14.80
2019,07,18,08,00,14.90
2019,07,18,08,01,14.90
2019,07,18,08,02,15.00
2019,07,18,08,03,15.00
2019,07,18,08,04,15.10
2019,07,18,08,05,15.10
2019,07,18,08,06,15.20
2019,07,18,08,07,15.20
2019,07,18,08,08,15.20
2019,07,18,08,09,15.30
2019,07,18,08,10,15.30
2019,07,18,08,11,15.30
2019,07,18,08,12,15.30
2019,07,18,08,13,15.40
2019,07,18,08,14,15.40
2019,07,18,08,15,15.40
2019,07,18,08,16,15.50
2019,07,18,08,17,15.60
2019,07,18,08,18,15.60
2019,07,18,08,19,15.70
2019,07,18,08,20,15.70
2019,07,18,08,21,15.70
2019,07,18,08,22,15.80
2019,07,18,08,23,15.80
2019,07,18,08,24,15.80
2019,07,18,08,25,15.80
2019,07,18,08,26,15.90
2019,07,18,08,27,15.90
2019,07,18,08,28,15.90
2019,07,18,08,29,16.00
2019,07,18,08,30,16.00
2019,07,18,08,31,16.00
2019,07,18,08,32,16.10
2019,07,18,08,33,16.10
2019,07,18,08,34,16.10
2019,07,18,08,35,16.10
2019,07,18,08,36,16.10
2019,07,18,08,37,16.10
2019,07,18,08,38,16.20
2019,07,18,08,39,16.20
2019,07,18,08,40,16.20
2019,07,18,08,41,16.20
2019,07,18,08,42,16.30
2019,07,18,08,43,16.30
2019,07,18,08,44,16.30
2019,07,18,08,45,16.30
2019,07,18,08,46,16.40
2019,07,18,08,47,16.40
2019,07,18,08,48,16.40
2019,07,18,08,49,16.40
2019,07,18,08,50,16.50
2019,07,18,08,51,16.50
2019,07,18,08,52,16.60
2019,07,18,08,53,16.60
2019,07,18,08,54,16.60
2019,07,18,08,55,16.70
2019,07,18,08,56,16.70
2019,07,18,08,57,16.70
2019,07,18,08,58,16.80
2019,07,18,08,59,16.80
2019,07,18,09,00,16.90
2019,07,18,09,01,16.90
2019,07,18,09,02,17.00
2019,07,18,09,03,17.10
2019,07,18,09,04,17.10
2019,07,18,09,05,17.20
2019,07,18,09,06,17.30
2019,07,18,09,07,17.40
2019,07,18,09,08,17.50
2019,07,18,09,09,17.50
2019,07,18,09,10,17.60
2019,07,18,09,11,17.70
2019,07,18,09,12,17.80
2019,07,18,09,13,17.80
2019,07,18,09,14,17.90
2019,07,18,09,15,17.90
2019,07,18,09,16,18.00
2019,07,18,09,17,18.00
2019,07,18,09,18,18.10
2019,07,18,09,19,18.10
2019,07,18,09,20,18.10
2019,07,18,09,21,18.20
2019,07,18,09,22,18.20
2019,07,18,09,23,18.20
2019,07,18,09,24,18.20
2019,07,18,09,25,18.30
2019,07,18,09,26,18.30
2019,07,18,09,27,18.40
2019,07,18,09,28,18.50
2019,07,18,09,29,18.60
2019,07,18,09,30,18.70
2019,07,18,09,31,18.80
2019,07,18,09,32,18.90
2019,07,18,09,33,19.00
2019,07,18,09,34,19.20
2019,07,18,09,35,19.30
2019,07,18,09,36,19.30
2019,07,18,09,37,19.40
2019,07,18,09,38,19.50
2019,07,18,09,39,19.50
2019,07,18,09,40,19.60
2019,07,18,09,41,19.60
2019,07,18,09,42,19.70
2019,07,18,09,43,19.70
2019,07,18,09,44,19.70
2019,07,18,09,45,19.70
2019,07,18,09,46,19.70
2019,07,18,09,47,19.70
2019,07,18,09,48,19.80
2019,07,18,09,49,19.80
2019,07,18,09,50,19.90
2019,07,18,09,51,19.90
2019,07,18,09,52,20.00
2019,07,18,09,53,20.00
2019,07,18,09,54,20.00
2019,07,18,09,55,20.10
2019,07,18,09,56,20.10
2019,07,18,09,57,20.10
2019,07,18,09,58,20.10
2019,07,18,09,59,20.10
2019,07,18,10,00,20.10
2019,07,18,10,01,20.20
2019,07,18,10,02,20.20
2019,07,18,10,03,20.20
2019,07,18,10,04,20.20
2019,07,18,10,05,20.20
2019,07,18,10,06,20.30
2019,07,18,10,07,20.30
2019,07,18,10,08,20.30
2019,07,18,10,09,20.40
2019,07,18,10,10,20.40
2019,07,18,10,11,20.40
2019,07,18,10,12,20.40
2019,07,18,10,13,20.50
2019,07,18,10,14,20.50
2019,07,18,10,15,20.50
2019,07,18,10,16,20.60
2019,07,18,10,17,20.60
2019,07,18,10,18,20.60
2019,07,18,10,19,20.60
2019,07,18,10,20,20.60
2019,07,18,10,21,20.60
2019,07,18,10,22,20.50
2019,07,18,10,23,20.50
2019,07,18,10,24,20.50
2019,07,18,10,25,20.50
2019,07,18,10,26,20.50
2019,07,18,10,27,20.60
2019,07,18,10,28,20.60
2019,07,18,10,29,20.60
2019,07,18,10,30,20.60
2019,07,18,10,31,20.70
2019,07,18,10,32,20.70
2019,07,18,10,33,20.70
2019,07,18,10,34,20.70
2019,07,18,10,35,20.80
2019,07,18,10,36,20.80
2019,07,18,10,37,20.80
2019,07,18,10,38,20.80
2019,07,18,10,39,20.90
2019,07,18,10,40,20.90
2019,07,18,10,41,20.90
2019,07,18,10,42,20.80
2019,07,18,10,43,20.80
2019,07,18,10,44,20.80
2019,07,18,10,45,20.70
2019,07,18,10,46,20.70
2019,07,18,10,47,20.60
2019,07,18,10,48,20.60
2019,07,18,10,49,20.60
2019,07,18,10,50,20.50
2019,07,18,10,51,20.50
2019,07,18,10,52,20.40
2019,07,18,10,53,20.40
2019,07,18,10,54,20.30
2019,07,18,10,55,20.30
2019,07,18,10,56,20.20
2019,07,18,10,57,20.20
2019,07,18,10,58,20.20
2019,07,18,10,59,20.20
2019,07,18,11,00,20.10
2019,07,18,11,01,20.10
2019,07,18,11,02,20.00
2019,07,18,11,03,20.00
2019,07,18,11,04,19.90
2019,07,18,11,05,19.90
2019,07,18,11,06,19.90
2019,07,18,11,07,19.90
2019,07,18,11,08,20.00
2019,07,18,11,09,20.00
2019,07,18,11,10,20.00
2019,07,18,11,11,20.00
2019,07,18,11,12,20.10
2019,07,18,11,13,20.10
2019,07,18,11,14,20.10
2019,07,18,11,15,20.10
2019,07,18,11,16,20.10
2019,07,18,11,17,20.10
2019,07,18,11,18,20.10
2019,07,18,11,19,20.10
2019,07,18,11,20,20.10
2019,07,18,11,21,20.10
2019,07,18,11,22,20.10
2019,07,18,11,23,20.10
2019,07,18,11,24,20.10
2019,07,18,11,25,20.10
2019,07,18,11,26,20.10
2019,07,18,11,27,20.00
2019,07,18,11,28,20.00
2019,07,18,11,29,20.00
2019,07,18,11,30,20.00
2019,07,18,11,31,20.00
2019,07,18,11,32,20.00
2019,07,18,11,33,19.90
2019,07,18,11,34,19.90
2019,07,18,11,35,19.90
2019,07,18,11,36,19.90
2019,07,18,11,37,19.90
2019,07,18,11,38,19.90
2019,07,18,11,39,20.00
2019,07,18,11,40,20.00
2019,07,18,11,41,20.00
2019,07,18,11,42,20.00
2019,07,18,11,43,20.10
2019,07,18,11,44,20.10
2019,07,18,11,45,20.10
2019,07,18,11,46,20.10
2019,07,18,11,47,20.10
2019,07,18,11,48,20.10
2019,07,18,11,49,20.20
2019,07,18,11,50,20.20
2019,07,18,11,51,20.20
2019,07,18,11,52,20.10
2019,07,18,11,53,20.10
2019,07,18,11,54,20.10
2019,07,18,11,55,20.00
2019,07,18,11,56,20.00
2019,07,18,11,57,19.90
2019,07,18,11,58,19.90
2019,07,18,11,59,19.80
2019,07,18,12,00,19.80
2019,07,18,12,01,19.70
2019,07,18,12,02,19.70
2019,07,18,12,03,19.60
2019,07,18,12,04,19.60
2019,07,18,12,05,19.50
2019,07,18,12,06,19.40
2019,07,18,12,07,19.40
2019,07,18,12,08,19.30
2019,07,18,12,09,19.30
2019,07,18,12,10,19.20
2019,07,18,12,11,19.20
2019,07,18,12,12,19.10
2019,07,18,12,13,19.10
2019,07,18,12,14,19.00
2019,07,18,12,15,19.00
2019,07,18,12,16,18.90
2019,07,18,12,17,18.80
2019,07,18,12,18,18.80
2019,07,18,12,19,18.80
2019,07,18,12,20,18.90
2019,07,18,12,21,18.90
2019,07,18,12,22,19.00
2019,07,18,12,23,19.00
2019,07,18,12,24,19.00
2019,07,18,12,25,19.00
2019,07,18,12,26,18.90
2019,07,18,12,27,18.90
2019,07,18,12,28,18.80
2019,07,18,12,29,18.80
2019,07,18,12,30,18.80
2019,07,18,12,31,18.70
2019,07,18,12,32,18.70
2019,07,18,12,33,18.70
2019,07,18,12,34,18.70
2019,07,18,12,35,18.70
2019,07,18,12,36,18.70
2019,07,18,12,37,18.70
2019,07,18,12,38,18.60
2019,07,18,12,39,18.60
2019,07,18,12,40,18.60
2019,07,18,12,41,18.60
2019,07,18,12,42,18.70
2019,07,18,12,43,18.70
2019,07,18,12,44,18.70
2019,07,18,12,45,18.70
2019,07,18,12,46,18.70
2019,07,18,12,47,18.70
2019,07,18,12,48,18.60
2019,07,18,12,49,18.60
2019,07,18,12,50,18.50
2019,07,18,12,51,18.40
2019,07,18,12,52,18.40
2019,07,18,12,53,18.30
2019,07,18,12,54,18.30
2019,07,18,12,55,18.20
2019,07,18,12,56,18.20
2019,07,18,12,57,18.10
2019,07,18,12,58,18.10
2019,07,18,12,59,18.20
2019,07,18,13,00,18.20
2019,07,18,13,01,18.20
2019,07,18,13,02,18.20
2019,07,18,13,03,18.30
2019,07,18,13,04,18.30
2019,07,18,13,05,18.30
2019,07,18,13,06,18.30
2019,07,18,13,07,18.30
2019,07,18,13,08,18.20
2019,07,18,13,09,18.20
2019,07,18,13,10,18.20
2019,07,18,13,11,18.20
2019,07,18,13,12,18.30
2019,07,18,13,13,18.30
2019,07,18,13,14,18.40
2019,07,18,13,15,18.40
2019,07,18,13,16,18.40
2019,07,18,13,17,18.40
2019,07,18,13,18,18.30
2019,07,18,13,19,18.30
2019,07,18,13,20,18.30
2019,07,18,13,21,18.20
2019,07,18,13,22,18.20
2019,07,18,13,23,18.20
2019,07,18,13,24,18.20
2019,07,18,13,25,18.20
2019,07,18,13,26,18.20
2019,07,18,13,27,18.20
2019,07,18,13,28,18.20
2019,07,18,13,29,18.20
2019,07,18,13,30,18.20
2019,07,18,13,31,18.30
2019,07,18,13,32,18.30
2019,07,18,13,33,18.40
2019,07,18,13,34,18.40
2019,07,18,13,35,18.40
2019,07,18,13,36,18.50
2019,07,18,13,37,18.50
2019,07,18,13,38,18.40
2019,07,18,13,39,18.40
2019,07,18,13,40,18.40
2019,07,18,13,41,18.40
2019,07,18,13,42,18.40
2019,07,18,13,43,18.40
2019,07,18,13,44,18.40
2019,07,18,13,45,18.50
2019,07,18,13,46,18.50
2019,07,18,13,47,18.60
2019,07,18,13,48,18.70
2019,07,18,13,49,18.80
2019,07,18,13,50,18.90
2019,07,18,13,51,19.00
2019,07,18,13,52,19.10
2019,07,18,13,53,19.20
2019,07,18,13,54,19.20
2019,07,18,13,55,19.20
2019,07,18,13,56,19.20
2019,07,18,13,57,19.10
2019,07,18,13,58,19.10
2019,07,18,13,59,19.10
2019,07,18,14,00,19.00
2019,07,18,14,01,18.90
2019,07,18,14,02,18.90
2019,07,18,14,03,18.80
2019,07,18,14,04,18.70
2019,07,18,14,05,18.60
2019,07,18,14,06,18.50
2019,07,18,14,07,18.50
2019,07,18,14,08,18.40
2019,07,18,14,09,18.30
2019,07,18,14,10,18.30
2019,07,18,14,11,18.20
2019,07,18,14,12,18.20
2019,07,18,14,13,18.10
2019,07,18,14,14,18.10
2019,07,18,14,15,18.00
2019,07,18,14,16,18.00
2019,07,18,14,17,17.90
2019,07,18,14,18,17.90
2019,07,18,14,19,17.90
2019,07,18,14,20,17.90
2019,07,18,14,21,17.90
2019,07,18,14,22,17.90
2019,07,18,14,23,17.90
2019,07,18,14,24,18.00
2019,07,18,14,25,18.10
2019,07,18,14,26,18.20
2019,07,18,14,27,18.30
2019,07,18,14,28,18.40
2019,07,18,14,29,18.50
2019,07,18,14,30,18.60
2019,07,18,14,31,18.70
2019,07,18,14,32,18.70
2019,07,18,14,33,18.80
2019,07,18,14,34,18.90
2019,07,18,14,35,18.90
2019,07,18,14,36,19.00
2019,07,18,14,37,19.10
2019,07,18,14,38,19.10
2019,07,18,14,39,19.10
2019,07,18,14,40,19.20
2019,07,18,14,41,19.20
2019,07,18,14,42,19.20
2019,07,18,14,43,19.20
2019,07,18,14,44,19.20
2019,07,18,14,45,19.20
2019,07,18,14,46,19.20
2019,07,18,14,47,19.20
2019,07,18,14,48,19.20
2019,07,18,14,49,19.20
2019,07,18,14,50,19.20
2019,07,18,14,51,19.20
2019,07,18,14,52,19.20
2019,07,18,14,53,19.10
2019,07,18,14,54,19.10
2019,07,18,14,55,19.00
2019,07,18,14,56,19.00
2019,07,18,14,57,18.90
2019,07,18,14,58,18.80
2019,07,18,14,59,18.80
2019,07,18,15,00,18.70
2019,07,18,15,01,18.70
2019,07,18,15,02,18.70
2019,07,18,15,03,18.70
2019,07,18,15,04,18.70
2019,07,18,15,05,18.70
2019,07,18,15,06,18.70
2019,07,18,15,07,18.70
2019,07,18,15,08,18.70
2019,07,18,15,09,18.80
2019,07,18,15,10,18.80
2019,07,18,15,11,18.80
2019,07,18,15,12,18.90
2019,07,18,15,13,19.00
2019,07,18,15,14,19.00
2019,07,18,15,15,19.10
2019,07,18,15,16,19.20
2019,07,18,15,17,19.30
2019,07,18,15,18,19.30
2019,07,18,15,19,19.40
2019,07,18,15,20,19.40
2019,07,18,15,21,19.40
2019,07,18,15,22,19.40
2019,07,18,15,23,19.50
2019,07,18,15,24,19.50
2019,07,18,15,25,19.60
2019,07,18,15,26,19.60
2019,07,18,15,27,19.60
2019,07,18,15,28,19.60
2019,07,18,15,29,19.60
2019,07,18,15,30,19.60
2019,07,18,15,31,19.60
2019,07,18,15,32,19.60
2019,07,18,15,33,19.60
2019,07,18,15,34,19.60
2019,07,18,15,35,19.60
2019,07,18,15,36,19.60
2019,07,18,15,37,19.60
2019,07,18,15,38,19.50
2019,07,18,15,39,19.50
2019,07,18,15,40,19.40
2019,07,18,15,41,19.30
2019,07,18,15,42,19.30
2019,07,18,15,43,19.30
2019,07,18,15,44,19.20
2019,07,18,15,45,19.10
2019,07,18,15,46,19.00
2019,07,18,15,47,18.90
2019,07,18,15,48,18.80
2019,07,18,15,49,18.80
2019,07,18,15,50,18.70
2019,07,18,15,51,18.60
2019,07,18,15,52,18.50
2019,07,18,15,53,18.50
2019,07,18,15,54,18.40
2019,07,18,15,55,18.40
2019,07,18,15,56,18.40
2019,07,18,15,57,18.40
2019,07,18,15,58,18.40
2019,07,18,15,59,18.40
2019,07,18,16,00,18.40
2019,07,18,16,01,18.40
2019,07,18,16,02,18.40
2019,07,18,16,03,18.40
2019,07,18,16,04,18.40
2019,07,18,16,05,18.40
2019,07,18,16,06,18.40
2019,07,18,16,07,18.30
2019,07,18,16,08,18.30
2019,07,18,16,09,18.30
2019,07,18,16,10,18.30
2019,07,18,16,11,18.30
2019,07,18,16,12,18.30
2019,07,18,16,13,18.30
2019,07,18,16,14,18.30
2019,07,18,16,15,18.30
2019,07,18,16,16,18.30
2019,07,18,16,17,18.30
2019,07,18,16,18,18.30
2019,07,18,16,19,18.30
2019,07,18,16,20,18.30
2019,07,18,16,21,18.30
2019,07,18,16,22,18.30
2019,07,18,16,23,18.20
2019,07,18,16,24,18.20
2019,07,18,16,25,18.20
2019,07,18,16,26,18.20
2019,07,18,16,27,18.20
2019,07,18,16,28,18.20
2019,07,18,16,29,18.20
2019,07,18,16,30,18.20
2019,07,18,16,31,18.20
2019,07,18,16,32,18.10
2019,07,18,16,33,18.10
2019,07,18,16,34,18.10
2019,07,18,16,35,18.10
2019,07,18,16,36,18.10
2019,07,18,16,37,18.10
2019,07,18,16,38,18.10
2019,07,18,16,39,18.20
2019,07,18,16,40,18.20
2019,07,18,16,41,18.20
2019,07,18,16,42,18.20
2019,07,18,16,43,18.20
2019,07,18,16,44,18.20
2019,07,18,16,45,18.30
2019,07,18,16,46,18.30
2019,07,18,16,47,18.30
2019,07,18,16,48,18.30
2019,07,18,16,49,18.30
2019,07,18,16,50,18.40
2019,07,18,16,51,18.40
2019,07,18,16,52,18.40
2019,07,18,16,53,18.50
2019,07,18,16,54,18.50
2019,07,18,16,55,18.50
2019,07,18,16,56,18.60
2019,07,18,16,57,18.60
2019,07,18,16,58,18.60
2019,07,18,16,59,18.70
2019,07,18,17,00,18.70
2019,07,18,17,01,18.70
2019,07,18,17,02,18.80
2019,07,18,17,03,18.80
2019,07,18,17,04,18.80
2019,07,18,17,05,18.90
2019,07,18,17,06,18.90
2019,07,18,17,07,18.90
2019,07,18,17,08,18.90
2019,07,18,17,09,19.00
2019,07,18,17,10,19.00
2019,07,18,17,11,19.00
2019,07,18,17,12,19.00
2019,07,18,17,13,19.10
2019,07,18,17,14,19.10
2019,07,18,17,15,19.10
2019,07,18,17,16,19.10
2019,07,18,17,17,19.10
2019,07,18,17,18,19.20
2019,07,18,17,19,19.20